Track NAVSTAR 60 (USA 196) now! NAVSTAR 60 (USA 196) is classified as:
1 32260U 07047A 25340.27202766 -.00000023 00000-0 00000-0 0 9993 2 32260 53.9509 88.0257 0164333 85.1745 276.6803 2.00564670132947